Wind_Speed
14 13 12 10 8 6 7 7 8 5 4 12 8 6 5 5 4 5 7 8 9 10 12 12 14 15 16 15 13 14 14 14 14 12 14 17 16 16 18 18 19 19 21
13 12 10 7 7 7 7 6 6 3 3 4 5 7 8 8 8 8 8 7 9 10 11 11 12 14 14 15 15 15 16 16 16 18 18 18 17 20 20 20 20 21 24
13 13 13 12 9 7 5 4 3 4 4 6 5 2 3 8 9 11 11 12 12 12 11 13 13 14 14 15 16 17 17 18 17 17 17 17 19 21 22 23 23 22 23
15 15 14 12 10 8 5 2 3 4 6 7 7 6 4 4 7 9 13 16 17 16 15 16 16 17 18 19 19 19 19 19 20 20 20 20 21 21 22 23 24 24 23
14 14 14 12 10 8 5 3 1 3 6 8 8 9 8 7 6 7 10 12 13 16 21 24 26 25 25 24 24 23 24 24 25 26 27 29 29 29 29 29 30 29 29
15 15 14 14 12 11 8 5 4 4 4 5 8 11 11 11 10 9 9 11 12 14 16 17 20 22 23 25 26 27 28 30 30 31 33 34 34 33 32 35 35 36 36
21 20 18 18 17 16 15 11 9 8 8 8 9 11 12 12 12 11 11 11 13 13 15 16 17 21 17 21 22 24 24 26 27 29 29 30 31 32 32 31 31 33 32
23 28 27 22 22 19 21 20 16 13 12 11 11 11 13 13 13 13 13 13 13 13 14 14 16 17 16 18 20 21 22 23 24 26 28 27 28 29 29 30 30 30 31
30 31 31 27 26 24 23 26 22 17 15 13 13 13 12 13 12 12 12 13 14 14 15 15 16 17 16 19 20 21 22 23 25 25 25 26 27 28 29 30 29 31 29
39 42 42 43 38 42 24 27 23 18 16 15 15 14 14 14 14 13 12 13 14 15 16 16 16 17 17 18 19 20 21 22 23 25 25 24 26 26 27 29 28 29 28
27 29 40 47 52 52 28 23 20 15 16 14 15 14 13 14 14 14 13 13 14 15 16 17 17 17 18 18 20 20 21 22 22 23 23 24 25 25 27 29 29 28 28
24 29 22 29 39 47 31 19 16 14 15 14 14 12 12 14 14 15 15 15 15 16 17 18 18 19 19 20 21 21 22 23 23 24 24 25 25 25 27 28 29 30 31
12 4 6 2 18 26 27 18 13 13 13 13 13 12 14 15 16 16 16 17 17 18 18 19 19 20 21 21 22 22 22 23 23 24 25 26 26 26 27 26 27 28 28
9 9 9 12 11 14 15 12 11 13 13 13 13 13 14 15 17 18 18 18 19 19 19 19 20 20 21 20 21 21 21 21 21 21 21 21 20 20 21 21 21 23 23
17 14 11 11 12 16 14 11 13 14 14 14 14 14 16 18 20 20 21 21 21 20 20 20 20 20 21 21 20 19 17 15 14 13 13 13 13 14 14 15 15 16 17
16 18 18 20 17 16 20 16 18 17 15 15 16 17 19 20 22 22 22 21 21 20 20 20 21 21 21 20 18 16 14 12 11 11 11 11 11 11 12 12 13 15 16
17 18 19 21 24 22 20 20 19 18 17 17 18 20 21 21 22 22 22 21 20 20 19 19 19 18 18 16 15 14 13 12 11 10 9 10 11 11 12 12 13 14 15
19 21 22 22 21 20 19 19 19 19 19 20 22 22 22 22 23 23 22 21 20 19 19 19 19 18 16 14 13 12 12 13 13 13 12 12 12 12 12 13 14 15 16
24 24 23 22 21 20 20 19 20 20 21 23 23 23 22 23 23 22 20 20 20 19 19 19 18 18 16 15 14 13 13 14 14 15 14 14 14 15 16 16 17 17 18
20 19 19 20 20 21 21 21 21 21 22 22 23 23 22 23 22 21 20 20 19 19 19 19 19 18 16 16 16 15 15 15 15 15 15 15 16 16 17 18 19 20 21
20 20 21 21 21 21 21 21 21 21 21 21 22 23 23 21 21 21 20 19 18 19 19 18 18 17 17 17 17 16 15 15 15 15 15 16 16 18 18 19 21 22 22
21 22 22 21 21 21 22 22 22 21 19 19 21 25 21 20 19 19 18 17 17 16 17 17 17 16 16 17 16 15 15 15 15 15 16 17 18 18 19 19 20 20 22
21 21 22 23 23 23 20 21 21 19 18 19 20 22 18 17 16 15 15 16 15 15 14 13 14 16 15 15 15 15 15 15 16 16 17 17 16 15 15 16 17 18 20
22 23 24 24 23 21 19 19 19 19 18 18 17 15 14 14 13 14 14 15 14 14 14 14 14 13 14 14 15 14 15 16 17 17 16 14 13 13 13 15 15 17 19
24 24 25 23 20 18 19 17 19 18 15 13 12 12 12 12 12 12 12 15 15 16 16 18 17 16 15 15 14 15 16 17 17 16 14 13 13 14 15 15 18 20 23
24 21 22 26 28 29 24 21 18 17 16 15 14 13 13 13 14 13 14 15 15 15 15 14 17 16 15 14 15 16 17 17 17 16 16 17 17 19 22 24 26 27 29
Wind_Direction
173 174 180 188 201 198 167 187 291 295 259 291 280 268 263 254 247 247 243 248 247 247 252 253 254 253 257 262 263 268 270 268 266 256 262 264 265 266 266 273 272 272 277
175 179 184 186 203 196 217 235 237 255 265 288 258 251 241 244 255 248 247 248 251 252 254 258 261 261 263 265 270 271 273 274 270 269 266 273 273 272 272 273 272 271 273
184 177 172 167 156 144 133 115 87 60 44 43 32 18 263 250 253 251 249 247 250 253 256 255 254 257 261 263 264 267 267 268 270 271 271 271 275 278 279 278 277 276 275
180 177 174 165 159 154 146 105 35 27 30 31 26 19 4 294 273 264 257 255 252 254 256 257 258 260 260 258 258 260 262 263 264 265 264 265 270 273 277 277 279 281 279
189 190 188 185 188 189 189 202 254 350 359 6 3 2 352 332 299 273 268 265 259 253 254 257 258 260 262 263 265 267 266 268 269 271 274 276 276 276 276 274 275 277 275
215 218 215 211 218 226 223 234 265 294 303 327 340 343 345 335 320 305 288 276 270 268 269 270 274 274 275 273 272 272 273 273 273 275 278 279 281 278 276 275 276 275 276
228 227 226 230 241 249 248 254 265 280 293 307 321 330 331 328 318 307 298 292 286 282 279 279 277 276 275 274 274 276 279 279 280 280 281 279 281 282 281 281 278 277 277
237 238 232 232 238 243 259 255 258 271 282 293 307 317 323 323 317 311 306 302 296 290 286 282 279 281 286 284 282 280 277 275 272 271 272 274 274 277 278 277 277 279 280
231 244 234 237 244 252 251 256 252 261 276 288 300 310 314 313 310 305 302 300 299 297 294 292 290 291 287 284 282 279 279 278 278 277 279 277 278 279 280 280 281 280 280
256 257 233 249 239 245 246 247 247 255 273 283 296 302 309 314 312 310 309 306 304 304 303 300 301 299 298 295 295 294 293 290 289 290 292 286 285 284 281 281 280 280 283
260 264 249 250 234 238 241 238 240 251 267 281 289 297 306 310 312 310 308 304 300 298 297 298 300 297 297 295 294 293 291 289 288 287 286 284 286 288 289 289 290 289 286
273 273 253 246 227 225 240 234 239 253 264 275 279 292 302 304 307 306 303 298 296 294 295 296 296 295 294 293 292 292 290 288 286 285 283 282 281 279 279 281 283 283 283
261 193 181 212 206 202 240 230 239 254 260 267 277 290 298 303 306 307 305 303 303 301 298 296 295 294 294 294 294 292 291 289 288 287 286 286 284 283 281 280 280 281 280
222 216 225 235 259 231 228 235 248 258 265 268 278 290 299 306 308 307 307 305 302 299 297 296 295 293 293 294 294 293 292 291 290 290 291 291 290 287 286 286 285 284 284
223 216 215 236 259 269 263 257 259 259 262 268 279 290 299 305 308 308 307 306 304 303 301 300 299 297 296 294 294 293 294 294 291 291 295 298 302 303 303 302 302 297 294
228 229 234 234 253 254 254 264 259 258 263 274 282 290 300 303 305 307 306 305 303 301 300 299 298 297 295 295 294 294 295 295 295 297 303 306 307 309 313 316 316 315 314
232 235 237 239 241 241 240 247 254 259 265 273 284 292 295 299 303 303 302 301 299 296 293 292 291 290 289 289 290 292 297 300 302 308 313 315 317 319 324 327 327 326 325
240 237 243 243 235 239 244 248 255 261 269 278 284 289 293 298 300 298 298 295 292 291 291 290 288 285 282 281 280 284 289 291 295 301 307 309 311 315 321 325 327 328 328
243 241 241 233 236 242 247 253 259 266 275 278 280 284 289 294 296 294 292 289 286 284 283 281 280 278 276 271 269 273 280 286 293 297 300 306 312 317 320 323 326 327 326
238 234 235 239 244 247 252 254 259 265 271 277 283 286 290 294 292 289 286 282 279 277 274 272 271 269 269 267 269 272 278 283 291 298 304 309 313 317 319 321 322 324 325
241 241 243 245 248 250 253 256 261 268 272 276 282 285 291 289 287 283 282 280 276 272 271 267 267 265 265 265 268 274 280 287 292 297 303 307 310 313 315 318 320 322 323
246 247 245 247 250 251 254 260 263 265 271 278 279 283 281 278 278 279 280 279 276 270 267 263 262 264 264 267 270 276 282 287 293 298 302 305 306 309 315 322 326 329 328
244 246 246 244 242 248 251 261 266 267 271 273 271 275 276 276 274 275 276 275 275 274 273 273 270 266 267 270 275 279 282 287 290 292 294 298 303 314 323 325 329 332 332
244 247 249 250 251 257 265 261 263 265 263 262 262 262 264 277 281 283 284 286 285 286 282 276 273 273 273 270 271 273 275 277 280 285 291 297 305 310 316 323 328 330 333
254 258 256 249 252 257 254 250 254 255 252 257 266 260 255 263 265 269 276 281 293 298 293 279 278 277 274 271 270 272 274 276 277 280 284 289 294 302 307 308 312 319 325
262 256 256 262 268 264 253 249 243 242 243 254 261 255 253 259 264 259 261 273 295 298 318 286 280 277 274 272 268 266 267 269 272 275 283 292 303 308 307 308 310 312 316
Height
3172 3175 3178 3180 3181 3182 3183 3183 3183 3183 3183 3181 3183 3183 3182 3184 3185 3186 3186 3187 3188 3189 3190 3191 3192 3193 3193 3194 3195 3196 3196 3197 3198 3199 3198 3197 3198 3199 3199 3199 3199 3199 3199
3173 3175 3177 3178 3180 3181 3182 3182 3182 3181 3181 3181 3180 3181 3181 3181 3183 3183 3185 3185 3186 3187 3187 3188 3189 3189 3190 3191 3191 3192 3192 3192 3194 3194 3195 3194 3194 3194 3195 3195 3195 3194 3194
3171 3173 3176 3177 3178 3179 3181 3181 3181 3180 3180 3179 3179 3179 3179 3180 3180 3181 3181 3182 3183 3184 3184 3185 3186 3186 3187 3187 3187 3187 3188 3188 3189 3190 3191 3190 3190 3189 3189 3189 3188 3188 3188
3169 3172 3174 3175 3177 3179 3180 3181 3181 3180 3179 3178 3178 3178 3178 3177 3177 3178 3178 3179 3181 3182 3181 3181 3182 3181 3182 3182 3182 3182 3183 3183 3184 3184 3184 3184 3183 3184 3183 3183 3182 3181 3181
3169 3172 3173 3174 3175 3176 3178 3178 3179 3179 3178 3178 3177 3176 3175 3176 3175 3174 3174 3173 3174 3175 3176 3176 3175 3177 3177 3178 3178 3178 3178 3178 3178 3178 3179 3179 3178 3178 3178 3177 3175 3175 3175
3168 3171 3173 3173 3174 3175 3175 3176 3176 3176 3176 3175 3175 3174 3172 3172 3171 3170 3170 3169 3169 3169 3170 3170 3170 3171 3172 3172 3172 3172 3172 3171 3171 3171 3171 3170 3169 3169 3169 3168 3167 3166 3166
3164 3167 3168 3170 3171 3172 3173 3173 3173 3174 3174 3173 3172 3171 3170 3169 3168 3167 3166 3165 3164 3164 3163 3163 3164 3162 3165 3164 3163 3163 3163 3163 3163 3163 3163 3162 3160 3159 3158 3158 3156 3155 3156
3160 3161 3163 3163 3165 3167 3169 3169 3170 3170 3170 3170 3170 3168 3167 3165 3164 3163 3162 3161 3161 3160 3159 3159 3158 3157 3158 3158 3157 3156 3155 3154 3153 3153 3151 3151 3150 3149 3148 3147 3145 3145 3145
3154 3156 3157 3158 3159 3161 3162 3165 3165 3165 3166 3166 3165 3164 3163 3162 3161 3159 3158 3157 3156 3156 3156 3155 3154 3153 3153 3152 3151 3149 3148 3147 3146 3146 3145 3143 3143 3141 3139 3138 3138 3135 3135
3145 3144 3151 3152 3152 3155 3156 3159 3160 3161 3161 3161 3160 3160 3158 3157 3157 3155 3154 3153 3152 3151 3151 3150 3150 3149 3148 3147 3146 3145 3144 3142 3140 3138 3138 3137 3135 3133 3131 3129 3129 3127 3127
3138 3137 3137 3135 3138 3145 3147 3152 3154 3154 3156 3156 3156 3155 3154 3153 3152 3151 3150 3149 3148 3147 3146 3145 3144 3143 3143 3142 3141 3139 3138 3136 3134 3132 3130 3128 3125 3123 3123 3120 3119 3119 3118
3131 3127 3124 3122 3124 3133 3141 3145 3147 3148 3150 3150 3151 3150 3149 3149 3148 3146 3145 3144 3143 3142 3140 3139 3138 3137 3136 3135 3134 3132 3131 3129 3127 3125 3122 3121 3119 3116 3113 3112 3111 3110 3109
3125 3121 3123 3124 3125 3129 3136 3140 3141 3144 3145 3147 3146 3145 3145 3144 3143 3142 3140 3139 3138 3136 3135 3134 3133 3131 3130 3129 3127 3126 3123 3121 3119 3117 3115 3113 3110 3108 3105 3103 3102 3101 3101
3122 3122 3123 3126 3128 3131 3133 3134 3136 3139 3140 3141 3141 3141 3140 3139 3137 3136 3135 3134 3133 3131 3129 3128 3126 3125 3124 3122 3121 3119 3117 3115 3112 3111 3109 3107 3104 3101 3098 3096 3094 3093 3093
3119 3119 3119 3123 3126 3127 3128 3129 3133 3135 3136 3136 3136 3135 3134 3133 3132 3130 3129 3127 3126 3124 3122 3120 3119 3118 3117 3115 3112 3111 3109 3108 3107 3104 3103 3101 3100 3096 3093 3091 3089 3087 3085
3116 3117 3119 3121 3122 3121 3124 3126 3130 3130 3130 3129 3130 3129 3128 3126 3125 3123 3121 3120 3119 3117 3116 3114 3113 3111 3110 3110 3107 3105 3104 3104 3103 3099 3098 3097 3096 3092 3089 3086 3084 3083 3081
3113 3114 3115 3116 3117 3118 3120 3122 3123 3124 3124 3124 3123 3123 3122 3121 3119 3117 3115 3113 3112 3111 3109 3109 3108 3106 3105 3103 3103 3102 3100 3099 3099 3096 3094 3093 3093 3090 3086 3083 3081 3079 3076
3111 3111 3111 3112 3113 3114 3116 3116 3117 3118 3117 3116 3116 3116 3114 3113 3112 3111 3109 3107 3106 3104 3103 3103 3102 3101 3100 3098 3098 3098 3097 3096 3096 3094 3091 3090 3089 3086 3081 3079 3077 3075 3073
3105 3106 3107 3107 3108 3109 3110 3111 3111 3111 3110 3110 3110 3108 3107 3106 3105 3103 3102 3100 3100 3098 3098 3097 3097 3096 3095 3094 3094 3093 3092 3092 3091 3089 3088 3086 3084 3081 3077 3075 3072 3070 3068
3098 3099 3100 3101 3102 3103 3104 3105 3105 3105 3104 3103 3101 3100 3099 3097 3097 3096 3095 3094 3094 3092 3092 3092 3092 3092 3090 3091 3090 3089 3088 3087 3086 3085 3083 3081 3079 3076 3074 3070 3068 3066 3064
3093 3094 3095 3096 3097 3098 3098 3099 3099 3098 3098 3096 3094 3092 3091 3091 3090 3089 3088 3087 3087 3086 3087 3086 3087 3086 3085 3085 3085 3084 3083 3082 3081 3080 3078 3076 3074 3072 3069 3066 3063 3061 3058
3087 3088 3090 3090 3090 3091 3092 3093 3092 3091 3091 3090 3088 3085 3086 3086 3085 3083 3082 3081 3081 3081 3081 3081 3081 3081 3080 3080 3079 3078 3077 3077 3075 3074 3073 3071 3069 3067 3064 3060 3058 3055 3053
3082 3083 3084 3084 3085 3085 3086 3085 3085 3084 3084 3084 3083 3081 3081 3080 3078 3077 3076 3076 3075 3076 3075 3075 3075 3075 3074 3073 3072 3072 3071 3071 3070 3069 3068 3066 3064 3061 3059 3056 3054 3051 3049
3076 3077 3077 3078 3078 3077 3077 3077 3078 3078 3078 3077 3077 3076 3074 3073 3072 3071 3071 3071 3071 3071 3070 3069 3069 3068 3067 3067 3066 3066 3065 3065 3064 3064 3063 3062 3059 3057 3055 3052 3050 3048 3045
3069 3069 3069 3069 3069 3069 3069 3070 3071 3071 3071 3070 3070 3070 3070 3069 3068 3067 3068 3067 3066 3066 3065 3063 3062 3061 3061 3061 3060 3060 3060 3060 3060 3058 3057 3056 3054 3052 3050 3048 3045 3042 3040
3062 3061 3063 3062 3062 3062 3063 3063 3064 3065 3066 3066 3065 3066 3066 3065 3064 3065 3065 3064 3062 3061 3060 3058 3056 3056 3055 3055 3055 3055 3056 3055 3054 3054 3052 3051 3049 3048 3046 3043 3040 3037 3035